Tracking 29892 objects as of 21-Nov-2024
HD Live streaming from Space Station
objects crossing your sky now

PSLV DEB

Track PSLV DEB now!
10-day predictions


NORAD ID: 27151
Int'l Code: 2001-049CX
Perigee: 342.8 km
Apogee: 354.7 km
Inclination: 97.6 °
Period: 91.4 minutes
Semi major axis: 6719 km
RCS: 0.1053 m2 (medium)
Launch date: October 22, 2001
Source: India (IND)
Launch site: SRIHARIKOTA (SRI)

Note: This is SATELLITE DEBRIS
Your satellite tracking list
Your tracking list is empty




NASA's NSSDC Master Catalog

Two Line Element Set (TLE):
1 27151U 01049CX  24326.13219251  .00294381  00000-0  18327-2 0  9991
2 27151  97.6399  27.6406 0008839 324.1822  35.8849 15.76067838254027
Source of the keplerian elements: AFSPC